RH
14 18 17 12 21 28 26 26 26 32 33 30 26 14 9 11 12 8 17 22 22 22 21 20 18 19 19 17 20 22 23 24 24 25 26 26 27 24 22 19 16 16 14 15
15 12 12 17 24 28 29 30 31 32 30 28 19 11 8 6 6 7 7 7 20 22 22 23 22 20 22 23 25 25 27 28 28 28 30 29 30 30 28 26 24 23 21 17
13 12 14 15 21 24 27 28 28 30 30 28 22 9 8 10 16 18 11 14 10 19 22 24 25 22 24 26 26 26 28 30 32 32 32 33 33 34 34 32 30 28 22 20
16 14 13 14 18 20 22 24 32 32 33 27 18 15 21 22 22 12 11 15 16 19 20 24 26 27 26 29 29 28 28 28 28 31 33 33 34 34 35 35 34 34 32 27
15 15 17 15 13 18 24 27 30 31 22 24 26 29 13 12 11 16 18 22 26 26 27 29 28 29 27 26 27 28 29 30 30 32 33 33 35 37 36 35 35 34 33 32
19 18 25 19 20 28 26 29 29 27 33 50 17 22 14 12 12 23 28 29 31 31 32 32 31 31 32 31 31 29 28 29 31 34 35 34 34 35 34 35 35 35 34 34
23 24 25 25 27 37 33 34 42 49 63 52 26 37 16 20 20 26 34 35 34 34 34 34 33 32 31 28 26 26 27 29 31 32 32 32 32 32 33 35 36 36 35 34
28 38 24 19 20 17 30 31 22 36 67 46 42 48 25 17 28 33 36 38 37 36 36 35 35 34 33 32 32 32 32 33 34 35 36 36 38 40 40 39 37 35 33 32
26 23 16 19 19 21 40 38 19 24 58 64 44 44 36 27 26 34 38 40 39 37 35 33 33 32 31 30 31 34 36 37 38 38 39 41 42 43 46 50 49 49 49 51
19 25 24 28 31 31 26 22 37 37 78 76 60 58 28 20 24 33 42 44 42 40 37 36 34 33 33 35 37 39 42 44 46 48 50 51 53 54 54 54 54 52 52 52
23 20 43 37 39 30 37 39 35 36 37 71 68 45 23 24 26 28 42 47 47 46 44 41 40 42 42 46 51 53 55 56 58 58 56 56 55 53 52 49 45 42 38 35
32 28 34 41 43 41 49 42 33 32 58 44 42 30 25 30 40 40 44 49 51 50 49 50 52 54 55 57 58 57 57 56 53 50 48 44 42 40 37 32 30 30 33 36
32 40 52 63 65 62 57 49 43 39 40 45 52 36 22 26 45 53 58 59 57 56 57 58 61 62 61 59 54 49 47 47 47 43 33 33 36 39 42 43 43 42 40 40
37 36 34 38 31 36 49 46 52 50 52 46 45 39 32 26 26 44 58 63 67 66 63 62 62 61 55 49 49 48 54 53 50 51 54 55 53 49 45 42 39 37 36 36
46 47 48 41 38 34 34 33 43 55 47 54 48 45 41 36 34 34 54 65 70 71 69 64 58 55 56 60 65 65 64 63 61 61 57 50 45 40 36 32 27 23 19 19
69 58 50 55 50 44 39 34 37 46 61 62 58 54 50 49 48 47 44 49 57 62 64 63 62 62 66 69 72 71 68 65 60 54 48 42 35 29 23 18 16 14 11 10
74 62 61 68 63 60 58 42 36 35 44 50 59 42 54 55 51 49 50 54 65 71 69 67 68 74 77 79 76 69 57 46 38 31 26 22 19 15 12 10 9 7 6 5
61 63 65 60 70 81 58 51 51 48 47 47 46 46 48 51 54 64 68 76 77 78 80 82 84 80 86 83 59 40 32 28 24 21 18 15 13 11 9 7 6 4 3 3
71 68 76 72 87 71 57 51 45 43 44 40 41 42 47 55 63 70 76 84 87 88 88 80 90 93 71 42 34 31 27 24 21 18 16 13 10 9 7 5 4 5 4 4
78 80 83 96 95 90 61 52 45 43 45 40 42 42 44 59 78 79 84 88 91 96 96 92 66 42 36 36 34 30 27 24 21 17 13 10 9 7 7 7 6 6 6 7
97 98 95 92 73 58 61 69 66 80 57 59 64 70 86 100 96 97 96 96 95 92 74 54 49 47 44 37 29 25 23 21 17 14 11 10 10 12 12 8 8 9 9 15
64 77 93 100 98 82 82 84 85 82 82 76 88 97 97 96 94 93 89 84 75 68 62 60 53 43 33 27 26 24 22 20 16 13 12 12 12 14 13 8 8 10 10 10
94 86 92 94 95 91 92 88 94 93 87 84 73 71 64 65 62 66 69 68 67 64 60 54 42 32 29 28 27 26 23 19 15 14 16 14 12 15 14 10 10 11 12 13
96 97 96 95 97 96 96 95 95 93 78 62 60 63 64 66 68 67 66 64 57 52 46 41 37 34 32 32 31 26 22 19 18 18 20 19 16 16 16 16 17 15 16 16
95 95 96 90 95 96 94 92 77 64 62 60 70 72 71 71 72 72 68 68 68 63 50 43 40 39 39 33 27 25 24 24 24 24 24 24 23 21 20 19 19 17 16 18
95 90 85 72 76 72 73 74 66 53 50 58 63 65 69 75 77 79 82 77 68 58 54 52 48 42 35 30 30 31 31 32 31 29 29 30 28 28 28 26 20 20 17 18
Wind_Speed
27 27 30 21 20 17 12 11 11 10 11 12 13 14 9 14 17 17 18 20 21 21 21 20 18 17 16 16 15 14 13 13 13 12 12 13 13 13 13 13 14 15 15 16
27 33 21 19 19 20 20 16 14 12 13 15 16 14 14 15 19 18 18 22 24 25 23 22 20 19 18 18 16 15 14 14 15 15 16 16 16 15 15 14 14 15 18 19
32 22 26 26 23 24 24 24 20 16 14 17 18 17 18 16 13 11 12 13 22 26 26 24 22 21 19 19 18 19 18 16 16 17 20 19 19 18 18 18 18 19 21 22
26 29 21 30 27 25 25 22 18 17 13 8 6 4 14 13 14 18 22 20 17 21 27 26 22 20 21 21 22 22 22 21 21 20 20 20 21 22 22 22 21 21 21 22
23 24 28 22 27 26 24 18 17 16 14 14 17 7 17 24 24 19 15 16 15 14 15 19 21 20 21 23 23 22 23 24 24 23 24 25 22 22 23 23 24 24 24 24
26 18 22 28 21 22 22 17 14 11 9 4 20 16 11 19 21 19 17 16 15 12 10 10 12 14 16 19 21 23 24 25 24 22 21 22 21 22 24 24 25 26 26 26
30 28 24 21 27 23 26 19 3 1 1 6 10 15 13 20 22 23 21 19 17 15 13 12 12 13 13 14 15 15 15 16 17 18 19 20 22 24 25 25 26 27 28 28
29 16 32 31 31 32 32 26 10 8 4 4 11 11 10 25 26 26 24 21 19 17 16 15 15 14 14 15 16 17 18 19 20 21 22 22 21 21 21 23 24 25 25 25
29 26 25 34 34 29 29 29 27 4 2 1 7 10 15 20 27 28 27 24 22 20 18 15 14 15 15 17 18 18 18 19 20 20 20 19 18 17 17 19 21 23 24 25
26 13 25 31 30 34 29 29 15 12 5 5 7 10 18 25 31 32 30 27 24 21 19 18 18 17 16 14 14 15 14 15 15 15 16 17 19 21 23 25 27 29 31 34
37 25 13 26 32 38 35 32 21 13 12 6 3 9 20 28 21 31 33 29 25 21 19 19 18 17 16 15 14 14 14 15 15 17 20 23 26 28 31 34 37 40 42 45
46 24 17 27 23 31 34 30 37 16 9 18 5 8 10 21 26 28 30 27 24 22 22 21 20 19 17 17 17 17 18 21 24 27 30 34 38 41 44 46 48 50 52 49
47 25 12 7 20 24 33 36 35 37 18 21 8 7 20 13 22 28 28 26 24 24 23 22 21 21 20 21 22 24 26 30 33 36 41 45 46 46 45 42 40 38 37 37
29 28 32 25 17 25 38 41 39 37 27 20 25 16 15 17 20 26 28 27 25 24 24 25 26 24 25 27 29 33 33 35 38 41 41 39 37 35 35 35 35 36 37 37
26 26 28 19 20 13 23 31 37 44 43 23 30 28 15 10 11 17 22 24 24 25 26 27 28 29 30 31 30 31 33 36 37 37 35 34 34 34 35 37 38 40 41 42
27 12 23 20 18 17 19 20 23 34 41 42 32 25 20 20 20 22 23 25 26 28 29 29 30 31 30 31 32 34 37 35 33 33 34 36 38 39 40 42 43 45 47 47
27 21 14 11 18 17 18 27 24 25 31 35 41 35 34 28 25 26 27 30 31 31 31 31 31 31 30 30 30 31 30 30 31 33 35 37 40 42 44 45 46 47 48 50
25 22 15 9 14 5 17 19 24 23 22 23 24 22 20 22 23 26 30 30 31 31 30 29 29 28 27 26 24 25 27 28 30 32 35 38 40 42 44 46 48 48 47 46
36 34 22 18 23 15 18 24 25 26 28 30 31 31 30 28 28 31 32 32 31 31 31 31 28 20 20 22 24 26 28 30 32 33 35 37 40 42 43 44 42 40 41 40
36 36 32 16 7 8 17 27 24 23 26 28 29 30 30 29 29 31 31 31 30 28 21 15 15 19 22 24 26 28 30 31 33 35 36 38 39 40 40 38 37 36 36 37
25 27 27 23 17 18 22 17 19 17 23 23 26 26 21 20 22 22 21 20 15 10 12 16 20 23 25 27 28 30 32 34 35 36 37 37 36 36 35 35 35 35 36 36
33 26 24 23 18 21 25 21 19 14 13 11 16 15 15 14 11 8 6 6 9 14 18 21 24 26 28 30 31 33 35 36 37 37 36 35 34 33 33 34 34 36 37 39
24 31 23 21 14 17 20 18 17 12 10 13 11 10 9 7 7 8 10 13 17 20 23 24 26 27 30 32 34 35 36 37 37 35 34 33 33 32 33 35 36 36 36 39
20 21 16 16 14 17 18 12 10 10 10 11 10 9 9 11 13 15 17 20 22 22 23 25 27 29 31 33 35 38 39 38 37 35 34 34 34 34 34 35 36 37 35 38
26 20 20 13 20 20 17 17 14 11 10 9 11 12 14 15 17 19 20 20 22 24 25 27 29 31 33 35 36 37 37 36 36 36 36 35 35 36 37 36 35 35 34 36
21 20 21 21 24 19 19 15 11 9 10 11 12 14 16 18 20 20 23 24 25 26 28 30 32 34 36 36 36 37 37 37 37 37 36 36 36 36 36 38 37 32 33 33
Wind_Direction
209 212 215 220 226 226 231 230 229 226 238 251 265 278 274 249 257 246 237 232 232 229 230 237 230 227 227 228 229 230 232 238 246 250 256 262 266 265 267 263 263 265 265 265
213 223 216 217 215 220 229 226 225 238 252 265 274 284 274 262 263 260 257 241 232 234 231 235 238 235 233 231 232 232 229 232 235 242 248 255 264 271 270 270 268 267 265 265
222 232 216 220 214 214 223 229 233 245 253 268 282 288 274 254 240 236 266 265 240 238 237 236 237 239 233 232 231 227 229 238 241 241 246 250 257 265 270 268 264 262 265 268
226 228 220 220 222 219 225 231 234 237 246 251 251 270 226 218 231 261 269 259 256 246 242 240 237 236 234 237 240 236 238 247 255 259 261 257 257 258 260 263 266 271 274 275
209 222 224 218 224 218 223 227 230 239 239 251 247 239 244 240 253 258 248 245 246 244 243 240 239 239 241 244 247 250 257 260 260 259 258 260 262 260 260 264 267 271 273 273
215 218 213 222 222 212 224 218 216 228 229 251 255 217 231 224 234 232 233 236 240 242 245 243 243 245 248 251 256 261 266 271 271 267 258 258 259 256 259 263 267 271 275 277
212 217 213 213 217 211 217 213 113 319 206 217 236 204 228 219 221 224 224 230 235 242 242 246 247 247 248 252 258 263 268 273 274 272 269 263 259 259 260 266 272 277 280 279
202 212 217 216 211 212 208 208 186 195 198 217 208 221 224 221 223 224 224 223 227 235 244 249 248 249 249 249 252 256 256 257 263 268 270 269 269 270 272 274 277 281 282 280
207 220 224 222 220 216 203 206 227 239 135 302 215 229 229 214 219 220 220 221 225 231 239 240 240 244 248 253 255 255 254 256 257 259 263 265 267 268 272 278 280 281 280 281
213 206 218 216 217 219 221 225 203 201 142 240 240 241 231 223 218 218 218 220 224 228 230 237 246 254 250 250 255 258 259 261 262 264 269 274 278 278 280 284 285 286 286 285
217 216 202 203 211 216 210 213 211 210 213 169 186 242 233 237 236 223 218 219 223 227 233 242 246 239 243 251 252 253 254 257 262 268 271 274 279 281 281 283 286 287 288 287
215 216 212 206 216 217 222 218 215 206 201 216 228 241 232 230 218 218 221 221 224 231 238 238 236 238 244 248 252 257 265 271 276 280 284 290 292 291 291 293 294 294 293 292
209 210 182 192 226 221 220 221 222 221 232 222 199 235 225 225 213 215 219 223 229 235 236 237 240 244 248 252 261 269 275 280 284 288 294 298 299 298 297 297 296 294 293 291
204 211 209 212 225 222 220 222 221 221 229 225 227 244 235 232 226 221 221 225 229 232 237 243 247 251 259 265 267 277 279 285 294 301 303 302 300 298 298 298 298 297 295 293
194 211 208 212 223 223 233 235 225 222 226 223 242 243 242 238 252 242 234 236 238 241 242 245 251 256 260 267 273 281 290 298 301 301 300 299 299 299 299 298 298 297 296 294
195 207 215 222 228 230 232 235 233 236 231 231 236 241 253 248 234 228 235 239 242 244 248 252 258 264 272 279 286 293 298 299 298 297 298 300 301 301 300 300 298 297 295 292
204 213 199 203 210 212 229 229 233 233 232 236 239 248 249 244 238 237 237 235 238 241 248 255 261 267 274 282 289 292 293 296 299 301 303 303 303 303 303 303 302 301 299 296
222 234 235 240 206 223 240 228 226 226 229 232 237 236 238 242 248 237 232 235 240 244 248 253 259 263 271 279 282 286 289 293 296 300 302 303 304 306 306 305 304 302 299 296
240 246 235 225 220 244 242 221 221 224 234 239 246 250 250 247 236 228 227 231 235 239 244 248 259 267 276 277 282 287 292 296 300 303 305 306 307 306 306 305 304 303 301 298
214 214 206 196 197 214 248 240 241 244 247 248 250 252 252 250 234 232 228 230 234 242 244 261 275 273 278 284 289 293 296 300 304 306 307 307 307 305 305 305 307 307 308 308
192 198 211 214 222 234 247 245 233 209 257 253 247 242 234 223 222 221 220 223 236 255 267 268 272 280 286 292 297 301 303 305 307 308 308 307 304 302 304 307 309 308 308 308
217 210 215 221 224 245 248 239 223 232 220 203 208 208 207 205 209 221 248 268 262 265 274 283 290 294 297 299 301 303 304 306 308 308 307 304 302 301 302 307 309 310 307 308
209 218 215 211 216 225 203 205 190 171 170 171 176 185 194 196 211 235 250 265 277 284 287 289 290 292 294 297 299 301 303 305 306 305 303 303 304 304 306 310 312 312 310 313
180 186 180 169 162 168 177 178 168 154 167 174 184 197 207 226 243 254 266 276 280 281 283 286 288 290 293 296 299 301 304 305 304 303 302 303 303 304 306 309 312 312 311 314
168 168 168 164 160 163 161 169 175 175 180 194 204 220 234 245 252 265 274 276 281 284 285 287 289 291 294 297 301 302 303 304 302 302 302 302 301 301 302 304 307 310 308 315
165 164 173 174 169 176 181 189 200 212 219 224 232 243 251 259 267 272 277 281 282 283 286 289 292 295 299 301 301 300 300 300 300 298 298 299 299 299 300 301 300 303 310 308